Terminal Aerodrome Forecast
Issued by NWS Grand Forks, ND

Home | Current Version | Previous Version | Graphics & Text | Print | Product List | Glossary On
Versions: 1 2 3 4 5 6 7 8 9 10 11 12 13 14 15 16 17 18 19 20 21 22 23
000
FTUS43 KFGF 292300
TAFFAR
TAF
KFAR 292337Z 3000/3024 36015KT P6SM BKN030
     FM300100 36015G25KT P6SM BKN025
     FM301200 35006KT P6SM SCT050=

USA.gov is the U.S. government's official web portal to all federal, state and local government web resources and services.